TimeCDT,TemperatureF,Dew PointF,Humidity,Sea Level PressureIn,VisibilityMPH,Wind Direction,Wind SpeedMPH,Gust SpeedMPH,PrecipitationIn,Events,Conditions,WindDirDegrees,DateUTC
12:15 AM,80.6,77.0,89,29.95,7.0,ESE,16.1,27.6,N/A,,Mostly Cloudy,110,2014-08-28 05:15:00
12:35 AM,82.4,78.8,89,29.94,10.0,ESE,17.3,-,N/A,,Scattered Clouds,110,2014-08-28 05:35:00
12:55 AM,84.2,78.8,84,29.94,-9999.0,ESE,20.7,-,N/A,,Scattered Clouds,110,2014-08-28 05:55:00
1:15 AM,84.2,77.0,79,29.93,10.0,ESE,23.0,-,N/A,,Mostly Cloudy,120,2014-08-28 06:15:00
1:35 AM,86.0,77.0,74,29.93,10.0,ESE,21.9,-,N/A,,Partly Cloudy,110,2014-08-28 06:35:00
1:55 AM,86.0,77.0,74,29.94,10.0,ESE,19.6,-,N/A,,Clear,120,2014-08-28 06:55:00
2:15 AM,86.0,77.0,74,29.93,10.0,ESE,19.6,-,N/A,,Scattered Clouds,120,2014-08-28 07:15:00
2:35 AM,86.0,77.0,74,29.93,10.0,ESE,20.7,-,N/A,,Mostly Cloudy,120,2014-08-28 07:35:00
2:55 AM,86.0,77.0,74,29.92,10.0,ESE,19.6,-,N/A,,Mostly Cloudy,120,2014-08-28 07:55:00
3:15 AM,84.2,78.8,84,29.91,10.0,ESE,18.4,-,N/A,,Mostly Cloudy,110,2014-08-28 08:15:00
3:35 AM,84.2,78.8,84,29.90,10.0,ESE,18.4,-,N/A,,Mostly Cloudy,110,2014-08-28 08:35:00
3:55 AM,84.2,78.8,84,29.91,10.0,ESE,17.3,-,N/A,,Mostly Cloudy,120,2014-08-28 08:55:00
4:15 AM,86.0,77.0,74,29.90,10.0,ESE,19.6,-,N/A,,Mostly Cloudy,110,2014-08-28 09:15:00
4:35 AM,84.2,78.8,84,29.90,10.0,ESE,18.4,-,N/A,,Mostly Cloudy,110,2014-08-28 09:35:00
4:55 AM,84.2,77.0,79,29.91,10.0,ESE,18.4,-,N/A,,Mostly Cloudy,110,2014-08-28 09:55:00
5:15 AM,86.0,77.0,74,29.89,10.0,ESE,19.6,-,N/A,,Scattered Clouds,110,2014-08-28 10:15:00
5:35 AM,86.0,77.0,74,29.89,10.0,ESE,19.6,-,N/A,,Clear,110,2014-08-28 10:35:00
5:55 AM,86.0,77.0,74,29.89,10.0,ESE,18.4,-,N/A,,Scattered Clouds,110,2014-08-28 10:55:00
6:15 AM,86.0,77.0,74,29.89,10.0,East,19.6,-,N/A,,Mostly Cloudy,100,2014-08-28 11:15:00
6:35 AM,86.0,78.8,79,29.89,10.0,ESE,17.3,-,N/A,,Overcast,110,2014-08-28 11:35:00
6:55 AM,82.4,75.2,79,29.90,6.0,South,17.3,28.8,N/A,,Haze,180,2014-08-28 11:55:00
7:15 AM,82.4,73.4,74,29.90,9.0,Calm,Calm,-,N/A,,Overcast,0,2014-08-28 12:15:00
7:35 AM,78.8,71.6,78,29.92,1.2,South,12.7,33.4,N/A,,Haze,170,2014-08-28 12:35:00
7:55 AM,78.8,75.2,89,29.91,2.0,Variable,6.9,15.0,N/A,,Haze,0,2014-08-28 12:55:00
8:15 AM,84.2,77.0,79,29.91,10.0,SSE,8.1,-,N/A,,Overcast,150,2014-08-28 13:15:00
8:35 AM,84.2,77.0,79,29.90,10.0,SSE,9.2,-,N/A,,Mostly Cloudy,150,2014-08-28 13:35:00
8:55 AM,86.0,77.0,74,29.92,9.0,SE,17.3,-,N/A,,Mostly Cloudy,130,2014-08-28 13:55:00
9:15 AM,86.0,77.0,74,29.92,10.0,SE,17.3,-,N/A,,Scattered Clouds,140,2014-08-28 14:15:00
9:55 AM,86.0,77.0,74,29.94,10.0,ESE,15.0,-,N/A,,Scattered Clouds,120,2014-08-28 14:55:00
10:15 AM,84.2,73.4,70,29.95,3.0,ESE,12.7,28.8,N/A,,Haze,110,2014-08-28 15:15:00
10:35 AM,86.0,78.8,79,29.94,10.0,ESE,18.4,-,N/A,,Mostly Cloudy,120,2014-08-28 15:35:00
10:55 AM,84.2,78.8,84,29.95,6.0,ESE,17.3,-,N/A,,Haze,120,2014-08-28 15:55:00
11:15 AM,84.2,73.4,70,29.96,10.0,SE,24.2,31.1,N/A,,Mostly Cloudy,140,2014-08-28 16:15:00
11:35 AM,82.4,71.6,70,29.96,10.0,SE,16.1,-,N/A,,Partly Cloudy,130,2014-08-28 16:35:00
11:55 AM,84.2,73.4,70,29.95,10.0,SSE,9.2,-,N/A,,Partly Cloudy,160,2014-08-28 16:55:00
12:15 PM,82.4,73.4,74,29.93,10.0,ESE,24.2,-,N/A,,Scattered Clouds,120,2014-08-28 17:15:00
12:35 PM,80.6,75.2,84,29.94,3.0,ESE,17.3,-,N/A,,Haze,120,2014-08-28 17:35:00
12:55 PM,80.6,75.2,84,29.94,7.0,ESE,16.1,-,N/A,,Scattered Clouds,110,2014-08-28 17:55:00
1:15 PM,82.4,77.0,84,29.94,8.0,ESE,15.0,-,N/A,,Clear,120,2014-08-28 18:15:00
1:35 PM,82.4,77.0,84,29.93,10.0,East,13.8,-,N/A,,Partly Cloudy,100,2014-08-28 18:35:00
1:55 PM,82.4,77.0,84,29.93,8.0,East,13.8,-,N/A,,Partly Cloudy,90,2014-08-28 18:55:00
2:15 PM,82.4,78.8,89,29.92,7.0,East,13.8,-,N/A,,Clear,80,2014-08-28 19:15:00
2:35 PM,82.4,75.2,79,29.92,9.0,East,13.8,-,N/A,,Partly Cloudy,90,2014-08-28 19:35:00
2:55 PM,82.4,77.0,84,29.91,9.0,ENE,13.8,-,N/A,,Partly Cloudy,60,2014-08-28 19:55:00
3:15 PM,82.4,77.0,84,29.90,10.0,ENE,13.8,-,N/A,,Clear,60,2014-08-28 20:15:00
3:35 PM,82.4,77.0,84,29.89,10.0,ENE,13.8,-,N/A,,Clear,60,2014-08-28 20:35:00
3:55 PM,82.4,77.0,84,29.89,9.0,ENE,12.7,-,N/A,,Clear,70,2014-08-28 20:55:00
4:15 PM,84.2,77.0,79,29.88,10.0,ENE,12.7,-,N/A,,Clear,70,2014-08-28 21:15:00
4:35 PM,84.2,77.0,79,29.88,10.0,East,16.1,-,N/A,,Scattered Clouds,90,2014-08-28 21:35:00
4:55 PM,82.4,77.0,84,29.88,8.0,ESE,20.7,-,N/A,,Mostly Cloudy,120,2014-08-28 21:55:00
5:15 PM,82.4,77.0,84,29.87,10.0,ESE,18.4,-,N/A,,Partly Cloudy,110,2014-08-28 22:15:00
5:35 PM,84.2,75.2,74,29.88,10.0,ESE,17.3,-,N/A,,Scattered Clouds,110,2014-08-28 22:35:00
5:55 PM,82.4,78.8,89,29.89,9.0,ESE,16.1,-,N/A,,Overcast,110,2014-08-28 22:55:00
6:15 PM,84.2,77.0,79,29.89,10.0,ESE,15.0,-,N/A,,Overcast,110,2014-08-28 23:15:00
6:35 PM,84.2,77.0,79,29.90,10.0,ESE,16.1,-,N/A,,Scattered Clouds,110,2014-08-28 23:35:00
6:55 PM,84.2,75.2,74,29.90,10.0,East,25.3,-,N/A,,Scattered Clouds,80,2014-08-28 23:55:00
7:15 PM,80.6,73.4,79,29.89,7.0,ENE,21.9,-,N/A,,Scattered Clouds,70,2014-08-29 00:15:00
7:35 PM,82.4,75.2,79,29.90,8.0,East,18.4,-,N/A,,Scattered Clouds,100,2014-08-29 00:35:00
7:55 PM,78.8,75.2,89,29.90,3.0,ESE,25.3,33.4,N/A,,Overcast,120,2014-08-29 00:55:00
8:15 PM,80.6,73.4,79,29.89,10.0,SE,13.8,20.7,N/A,,Mostly Cloudy,130,2014-08-29 01:15:00
8:35 PM,80.6,73.4,79,29.89,10.0,ESE,10.4,-,N/A,,Mostly Cloudy,120,2014-08-29 01:35:00
8:55 PM,82.4,75.2,79,29.89,9.0,SE,25.3,32.2,N/A,,Mostly Cloudy,130,2014-08-29 01:55:00
9:15 PM,84.2,77.0,79,29.89,10.0,ESE,13.8,19.6,N/A,,Mostly Cloudy,120,2014-08-29 02:15:00
9:35 PM,84.2,77.0,79,29.89,-9999.0,ESE,24.2,-,N/A,,Mostly Cloudy,120,2014-08-29 02:35:00
9:55 PM,86.0,77.0,74,29.89,10.0,ESE,20.7,-,N/A,,Scattered Clouds,110,2014-08-29 02:55:00
10:15 PM,86.0,77.0,74,29.89,10.0,ESE,23.0,-,N/A,,Scattered Clouds,110,2014-08-29 03:15:00
10:35 PM,84.2,78.8,84,29.89,10.0,ESE,21.9,-,N/A,,Scattered Clouds,120,2014-08-29 03:35:00
10:55 PM,84.2,78.8,84,29.90,10.0,ESE,25.3,-,N/A,,Partly Cloudy,120,2014-08-29 03:55:00
11:15 PM,86.0,78.8,79,29.91,10.0,ESE,21.9,-,N/A,,Partly Cloudy,120,2014-08-29 04:15:00
11:35 PM,86.0,78.8,79,29.90,10.0,ESE,20.7,-,N/A,,Scattered Clouds,110,2014-08-29 04:35:00
11:55 PM,84.2,78.8,84,29.90,10.0,ESE,21.9,-,N/A,,Mostly Cloudy,110,2014-08-29 04:55:00